[[{"header":{"parameterUnit":"m.s-1","parameterCategory":1,"la1":30.2991,"la2":30.254,"lo1":-89.0895,"lo2":-89.0444,"dy":0.0017,"dx":0.0017,"nx":28,"ny":28,"refTime":"2025-01-27T03:00:00:Z","depth":0,"parameterNumber":2,"parameterNumberName":"U-component_of_WINDS"},"data":[0,0,0,0,0,0,0,0,0,0,0,0,0,0,0,0,0,0,0,0,0,0,0,0,0,0,0,0,0,0,0,0,0,0,0,0,0,0,0,0,0,0,0,0,0,0,0,0,0,0,0,0,0,0,0,0,0,0,-1.5692,-1.5692,0,-1.5678,-1.5678,-1.5678,-1.5667,-1.5667,-1.5667,-1.5667,-1.5652,-1.5651,-1.5651,0,0,0,0,0,0,0,0,0,0,0,0,0,-1.5708,-1.5708,-1.5692,-1.5692,-1.5692,-1.5678,-1.5678,-1.5678,-1.5667,-1.5667,-1.5667,-1.5667,-1.5652,-1.5651,-1.5651,0,0,0,0,0,0,0,0,0,0,0,0,0,-1.5698,-1.5708,-1.5692,-1.5685,-1.5684,-1.5678,-1.5678,-1.5678,-1.5667,-1.5667,-1.5667,-1.5667,-1.5652,-1.5651,-1.5651,-1.5651,0,0,-1.5649,-1.5649,0,0,0,0,0,0,0,0,-1.5699,-1.5698,-1.5686,-1.5686,-1.5685,-1.5674,-1.5678,-1.5669,-1.5667,-1.5674,-1.5667,-1.5667,-1.5659,-1.5658,-1.5656,-1.565,-1.5649,-1.5649,-1.5649,-1.5649,-1.5649,0,0,0,0,0,0,0,-1.57,-1.5698,-1.5687,-1.5686,-1.5685,-1.5682,-1.568,-1.5676,-1.5667,-1.5673,-1.5672,-1.5671,-1.5659,-1.5656,-1.5655,-1.5649,-1.5649,-1.5649,-1.5649,-1.5648,-1.564,-1.564,0,0,0,0,0,0,-1.5702,-1.5699,-1.5687,-1.5686,-1.5692,-1.5682,-1.568,-1.5678,-1.5667,-1.5666,-1.5671,-1.5671,-1.5657,-1.5656,-1.5655,-1.5652,-1.5649,-1.5648,-1.5648,-1.564,-1.564,-1.564,0,0,0,0,0,0,-1.5702,-1.5701,-1.5688,-1.5692,-1.5691,-1.5682,-1.5679,-1.5678,-1.5675,-1.5666,-1.5664,-1.567,-1.5657,-1.5655,-1.5651,-1.5652,-1.5648,-1.5648,-1.5639,-1.564,-1.564,-1.5648,0,0,0,0,0,0,-1.5703,-1.5701,-1.5701,-1.5693,-1.569,-1.5685,-1.5679,-1.5678,-1.5674,-1.5674,-1.5665,-1.5663,-1.5657,-1.5652,-1.5651,-1.5651,-1.5647,-1.5639,-1.564,-1.564,-1.5648,-1.5649,-1.5649,0,0,0,0,0,-1.5703,-1.5705,-1.5702,-1.57,-1.5691,-1.5685,-1.5684,-1.5677,-1.5675,-1.5674,-1.5668,-1.5663,-1.5652,-1.5652,-1.565,-1.565,-1.5639,-1.5639,-1.564,-1.5648,-1.5648,-1.5649,0,0,0,0,0,0,-1.5714,-1.5703,-1.57,-1.5699,-1.5693,-1.5684,-1.5683,-1.5679,-1.5674,-1.5673,-1.5664,-1.5662,-1.5658,-1.5654,-1.5654,-1.5648,-1.5645,-1.5645,-1.5651,-1.5652,-1.5653,-1.5654,-1.5647,0,0,0,0,0,-1.5716,-1.5713,-1.5704,-1.5704,-1.5701,-1.5693,-1.569,-1.5685,-1.5679,-1.5676,-1.567,-1.5663,-1.5658,-1.5655,-1.565,-1.5647,-1.5644,-1.5646,-1.5647,-1.5647,-1.5647,-1.5644,-1.5644,-1.564,-1.564,-1.564,0,0,-1.5721,-1.5715,-1.5713,-1.5706,-1.5701,-1.5697,-1.5691,-1.5688,-1.5684,-1.5676,-1.5671,-1.5666,-1.5658,-1.5654,-1.5652,-1.565,-1.5648,-1.5648,-1.5648,-1.5648,-1.5644,-1.5644,-1.5645,-1.564,-1.564,-1.564,0,0,-1.5727,-1.5723,-1.5721,-1.5716,-1.5708,-1.5703,-1.5702,-1.5693,-1.5689,-1.5685,-1.5678,-1.5673,-1.5665,-1.5659,-1.5655,-1.5657,-1.5652,-1.5655,-1.5659,-1.5656,-1.5656,-1.5656,-1.5656,-1.5656,-1.5655,-1.5655,-1.5655,0,-1.5734,-1.5728,-1.5721,-1.5717,-1.5714,-1.5705,-1.5703,-1.5698,-1.5689,-1.5686,-1.5684,-1.5673,-1.5667,-1.5661,-1.5661,-1.5658,-1.5657,-1.5656,-1.5657,-1.5657,-1.5657,-1.5656,-1.5656,-1.5656,-1.5656,-1.5656,-1.5656,0,-1.5736,-1.5732,-1.5732,-1.5723,-1.5719,-1.5716,-1.5707,-1.5704,-1.5699,-1.5693,-1.5687,-1.568,-1.5672,-1.567,-1.5666,-1.5663,-1.5662,-1.5658,-1.5655,-1.5658,-1.5657,-1.5657,-1.5656,-1.5656,-1.5656,-1.5656,0,0,-1.5749,-1.5735,-1.5735,-1.5731,-1.5721,-1.5717,-1.5713,-1.5706,-1.5703,-1.5696,-1.5692,-1.5684,-1.568,-1.5676,-1.567,-1.5667,-1.5667,-1.5664,-1.5663,-1.5664,-1.5662,-1.5665,-1.5665,-1.5664,-1.5664,-1.5664,-1.5663,0,-1.5753,-1.5746,-1.5739,-1.5734,-1.573,-1.5721,-1.5717,-1.571,-1.5704,-1.5699,-1.5692,-1.5686,-1.5682,-1.5679,-1.5676,-1.5668,-1.5667,-1.5668,-1.5659,-1.5658,-1.5661,-1.5664,-1.5667,-1.5667,-1.5662,-1.5662,-1.5662,0,-1.5757,-1.5751,-1.5746,-1.5735,-1.5733,-1.573,-1.5721,-1.5717,-1.5708,-1.5703,-1.5697,-1.5691,-1.5685,-1.5682,-1.5673,-1.5674,-1.567,-1.5665,-1.5665,-1.5663,-1.566,-1.5662,-1.5666,-1.5666,-1.5662,-1.5662,-1.5662,0,-1.5766,-1.5756,-1.5752,-1.5748,-1.5735,-1.5733,-1.5728,-1.5719,-1.5714,-1.5707,-1.5703,-1.5695,-1.5691,-1.5684,-1.5675,-1.5674,-1.5666,-1.5663,-1.5661,-1.5662,-1.566,-1.566,-1.5663,-1.5658,-1.5658,-1.5658,-1.5658,0,-1.5771,-1.5768,-1.5755,-1.5752,-1.5748,-1.5739,-1.5734,-1.5728,-1.572,-1.5715,-1.5707,-1.5702,-1.5691,-1.5684,-1.5677,-1.567,-1.5668,-1.5663,-1.5661,-1.5664,-1.5664,-1.5661,-1.566,-1.5658,-1.5658,-1.5658,-1.5658,0,-1.578,-1.5772,-1.5766,-1.5754,-1.5751,-1.5748,-1.5738,-1.5734,-1.5727,-1.572,-1.5718,-1.5707,-1.5698,-1.5689,-1.5677,-1.5672,-1.5665,-1.5663,-1.5669,-1.5667,-1.5666,-1.5666,-1.5666,-1.5665,-1.5662,-1.5662,-1.5662,0,-1.5784,-1.5781,-1.5769,-1.5765,-1.576,-1.5753,-1.5748,-1.5739,-1.5734,-1.5723,-1.572,-1.5711,-1.5703,-1.569,-1.568,-1.5671,-1.5668,-1.5668,-1.5666,-1.5668,-1.5666,-1.5667,-1.5666,-1.5669,-1.5669,-1.5669,-1.5669,0,-1.579,-1.5786,-1.5779,-1.5771,-1.5765,-1.5758,-1.575,-1.5747,-1.5736,-1.573,-1.5722,-1.5716,-1.5703,-1.5694,-1.5683,-1.5677,-1.567,-1.567,-1.5669,-1.5671,-1.5674,-1.5671,-1.5669,-1.567,-1.567,-1.567,-1.5669,-1.5669,-1.5796,-1.5793,-1.5783,-1.5776,-1.5769,-1.5761,-1.5757,-1.5749,-1.5742,-1.5731,-1.5726,-1.5717,-1.5706,-1.5691,-1.5685,-1.5677,-1.5675,-1.5674,-1.5673,-1.5673,-1.5673,-1.5675,-1.5675,-1.5675,-1.5675,-1.5675,-1.5675,0,-1.5801,-1.5794,-1.5788,-1.5777,-1.5771,-1.5765,-1.5756,-1.5751,-1.5744,-1.5735,-1.5727,-1.5716,-1.5707,-1.5696,-1.5685,-1.5681,-1.5678,-1.5679,-1.5679,-1.5677,-1.5676,-1.5678,-1.5681,-1.5681,-1.5681,-1.5681,-1.5681,-1.5681,-1.5803,-1.5797,-1.5791,-1.578,-1.5773,-1.5765,-1.576,-1.5753,-1.5745,-1.5734,-1.5726,-1.5719,-1.5708,-1.5697,-1.5688,-1.5685,-1.5681,-1.5682,-1.5678,-1.5678,-1.5677,-1.5677,-1.5678,-1.5682,-1.5682,-1.568,-1.5679,-1.5679]},{"header":{"parameterUnit":"m.s-1","parameterCategory":1,"la1":30.2991,"la2":30.254,"lo1":-89.0895,"lo2":-89.0444,"dy":0.0017,"dx":0.0017,"nx":28,"ny":28,"refTime":"2025-01-27T03:00:00:Z","depth":0,"parameterNumber":3,"parameterNumberName":"V-component_of_WINDS"},"data":[0,0,0,0,0,0,0,0,0,0,0,0,0,0,0,0,0,0,0,0,0,0,0,0,0,0,0,0,0,0,0,0,0,0,0,0,0,0,0,0,0,0,0,0,0,0,0,0,0,0,0,0,0,0,0,0,0,0,2.2328,2.2329,0,2.238,2.2381,2.2381,2.2361,2.2359,2.2358,2.2357,2.2411,2.2413,2.2416,0,0,0,0,0,0,0,0,0,0,0,0,0,2.2213,2.2215,2.2328,2.2329,2.2329,2.238,2.2381,2.2381,2.2361,2.2359,2.2358,2.2356,2.241,2.2413,2.2416,0,0,0,0,0,0,0,0,0,0,0,0,0,2.2264,2.2216,2.2328,2.2325,2.2325,2.238,2.2381,2.2382,2.2361,2.2359,2.2357,2.2356,2.2409,2.2413,2.2417,2.2477,0,0,2.2428,2.243,0,0,0,0,0,0,0,0,2.2261,2.2268,2.2325,2.2325,2.2326,2.2362,2.236,2.2414,2.2362,2.2348,2.2357,2.2355,2.2396,2.2401,2.2415,2.248,2.2482,2.2429,2.2431,2.2433,2.2434,0,0,0,0,0,0,0,2.2257,2.2266,2.2349,2.2326,2.2326,2.2322,2.2327,2.237,2.2382,2.2349,2.2347,2.2354,2.2396,2.2411,2.2416,2.2483,2.2429,2.2432,2.2435,2.2436,2.2604,2.2606,0,0,0,0,0,0,2.2253,2.2263,2.2347,2.235,2.2288,2.2325,2.2331,2.2352,2.2381,2.2384,2.2355,2.2352,2.2405,2.2411,2.2418,2.2493,2.2433,2.2436,2.2439,2.2602,2.2604,2.2607,0,0,0,0,0,0,2.2251,2.2261,2.2345,2.2306,2.2316,2.2329,2.2353,2.2354,2.2369,2.2386,2.2388,2.2368,2.2404,2.2412,2.2463,2.2495,2.2438,2.2442,2.2599,2.2603,2.2605,2.2643,0,0,0,0,0,0,2.2248,2.226,2.2283,2.2307,2.2319,2.2389,2.2355,2.2357,2.2376,2.2373,2.2399,2.2401,2.2403,2.2458,2.2467,2.2499,2.2445,2.2597,2.2601,2.2604,2.264,2.2648,2.2654,0,0,0,0,0,2.2244,2.2291,2.2284,2.2294,2.2347,2.2391,2.2398,2.2399,2.2378,2.2402,2.2413,2.2401,2.2489,2.2463,2.2474,2.2507,2.2595,2.26,2.2604,2.2636,2.2646,2.2654,0,0,0,0,0,0,2.227,2.2294,2.2287,2.2343,2.2365,2.2387,2.2417,2.2409,2.2437,2.2433,2.2434,2.244,2.2493,2.2505,2.2475,2.2569,2.2539,2.2546,2.256,2.2569,2.2577,2.2574,2.2448,0,0,0,0,0,2.2282,2.2315,2.2335,2.2382,2.2394,2.2404,2.2423,2.2422,2.2445,2.2454,2.2469,2.2492,2.2526,2.2548,2.2579,2.264,2.2647,2.2669,2.2676,2.2682,2.2689,2.2726,2.2737,2.2622,2.2622,2.2622,0,0,2.2308,2.2325,2.2346,2.2388,2.2405,2.2441,2.2412,2.245,2.2477,2.246,2.251,2.2522,2.2548,2.2605,2.2631,2.2617,2.2722,2.2689,2.2693,2.2697,2.2732,2.2743,2.2752,2.2626,2.2625,2.2625,0,0,2.2374,2.2389,2.2432,2.245,2.2477,2.2483,2.2494,2.2518,2.2525,2.2575,2.2565,2.2597,2.2653,2.2674,2.2691,2.2767,2.2758,2.2777,2.2817,2.2852,2.2862,2.287,2.29,2.291,2.2783,2.2783,2.2783,0,2.2403,2.2456,2.2455,2.2496,2.2516,2.2502,2.2547,2.2565,2.26,2.2615,2.2598,2.2671,2.2687,2.2751,2.277,2.2783,2.2797,2.2775,2.286,2.2868,2.2876,2.2904,2.2915,2.2786,2.2786,2.2785,2.2785,0,2.2492,2.2529,2.256,2.2596,2.2619,2.2661,2.2668,2.2692,2.2689,2.2698,2.2751,2.277,2.2807,2.2821,2.2818,2.2885,2.2876,2.2859,2.283,2.2889,2.2916,2.2927,2.2789,2.2788,2.2788,2.2787,0,0,2.2576,2.2612,2.2624,2.2641,2.267,2.2699,2.2742,2.2778,2.2799,2.2824,2.2862,2.2911,2.2897,2.2917,2.2916,2.2947,2.301,2.2927,2.2928,2.2945,2.3088,2.3102,2.3115,2.3003,2.3005,2.3007,2.3087,0,2.2646,2.2721,2.2722,2.2791,2.2827,2.2816,2.2853,2.2876,2.2885,2.2917,2.2927,2.2964,2.2941,2.2953,2.2983,2.2996,2.3039,2.299,2.304,2.3042,2.3036,2.3128,2.3143,2.3218,2.3097,2.3099,2.31,0,2.2738,2.2768,2.284,2.2867,2.2882,2.2915,2.295,2.298,2.3007,2.3012,2.3035,2.3031,2.3076,2.3043,2.3106,2.3073,2.3093,2.3103,2.3106,2.3112,2.3076,2.314,2.3241,2.3254,2.3116,2.3115,2.3114,0,2.2796,2.2854,2.2905,2.292,2.2951,2.2976,2.299,2.3014,2.3037,2.3067,2.3082,2.3117,2.3137,2.3164,2.317,2.3146,2.3235,2.3202,2.3242,2.3242,2.3263,2.3262,2.3371,2.3272,2.3272,2.3271,2.3271,0,2.2876,2.2922,2.2932,2.2964,2.3016,2.3017,2.3069,2.3081,2.3103,2.3139,2.313,2.3164,2.3168,2.3203,2.3208,2.3261,2.3269,2.3276,2.3277,2.3278,2.3278,2.3293,2.3289,2.3274,2.3274,2.3273,2.3273,0,2.295,2.2959,2.3015,2.304,2.3048,2.3085,2.3108,2.3139,2.3148,2.3193,2.3204,2.3218,2.3259,2.3267,2.3315,2.3319,2.3383,2.3378,2.3375,2.3375,2.3416,2.3413,2.3541,2.3559,2.3445,2.3446,2.3447,0,2.3002,2.3037,2.3067,2.309,2.3106,2.3143,2.3167,2.317,2.3195,2.3229,2.3257,2.3297,2.333,2.3396,2.3411,2.3449,2.3446,2.3488,2.3452,2.3453,2.345,2.3449,2.3454,2.3496,2.3497,2.3498,2.3499,0,2.3094,2.3097,2.3131,2.3167,2.3195,2.3224,2.3251,2.3271,2.3278,2.3307,2.3349,2.3374,2.3424,2.3466,2.3503,2.3519,2.3512,2.351,2.3522,2.3525,2.3523,2.3528,2.3397,2.3508,2.3507,2.3506,2.3506,2.3505,2.3161,2.3192,2.3219,2.3258,2.3279,2.3305,2.3337,2.335,2.3385,2.3427,2.3427,2.3474,2.3501,2.3551,2.357,2.3607,2.3594,2.361,2.3615,2.362,2.3625,2.3515,2.3614,2.3614,2.3613,2.3613,2.3613,0,2.3255,2.3272,2.3307,2.3346,2.3377,2.3367,2.3397,2.3424,2.3465,2.3492,2.3524,2.3574,2.3615,2.3633,2.3673,2.37,2.3698,2.3711,2.371,2.3715,2.3633,2.362,2.3712,2.3712,2.3712,2.3712,2.3712,2.3712,2.3308,2.3362,2.3368,2.3434,2.345,2.3497,2.3515,2.354,2.3561,2.3618,2.3651,2.3663,2.3687,2.3729,2.3767,2.3771,2.3788,2.3803,2.3806,2.373,2.372,2.371,2.3699,2.3806,2.3806,2.3885,2.3886,2.3886]}]]